カタログに戻る

STARLINK-6204

運用中通信VLEO
NORAD 56488·PAYLOAD·🇺🇸 United States

打ち上げ May 10, 2023 から Vandenberg Space Force Base

Loading…

次のパス (今後24時間)

TLE

最新Source: CelesTrak SupGP

元期: Sep 14, 2026, 21:53 UTC

1 56488C 23064AS  26257.91229167 -.00049132  00000+0 -41187-2 0  2575
2 56488  70.0018 347.4598 0003375 272.0047  91.7849 14.98342968    12

AllMySatでSTARLINK-6204をリアルタイム追跡

Download on the App Store